| time (UTC) | temp F | wind direction | speed MPH | gust MPH | rain 1hr in | rain 24hr in | rain mn in | humidity % | barometer mb |
| 20260508012436 | 28 | 106 | 0.0 | 2.0 | 0.00 | 0.00 | 0.00 | 79 | 1021.7 |
| 20260508011536 | 28 | 96 | 1.0 | 2.0 | 0.00 | 0.00 | 0.00 | 79 | 1021.7 |
| 20260508010636 | 28 | 96 | 1.0 | 2.0 | 0.00 | 0.00 | 0.00 | 79 | 1021.6 |
| 20260508005736 | 29 | 102 | 1.0 | 2.0 | 0.00 | 0.00 | 0.00 | 79 | 1021.5 |
| 20260508004836 | 29 | 103 | 1.0 | 3.0 | 0.00 | 0.00 | 0.00 | 80 | 1021.4 |
| 20260508004149 | 29 | 99 | 1.0 | 3.0 | 0.00 | 0.00 | 0.00 | 80 | 1021.3 |
| 20260508003246 | 29 | 100 | 1.0 | 2.0 | 0.00 | 0.00 | 0.00 | 80 | 1021.3 |
| 20260508002135 | 30 | 95 | 1.0 | 2.0 | 0.00 | 0.00 | 0.00 | 80 | 1021.2 |
| 20260508001236 | 30 | 94 | 1.0 | 3.0 | 0.00 | 0.00 | 0.00 | 81 | 1021.1 |
| 20260508000335 | 31 | 91 | 1.0 | 2.0 | 0.00 | 0.00 | 0.00 | 81 | 1021.1 |
| 20260507235436 | 30 | 92 | 1.0 | 2.0 | 0.00 | 0.00 | 0.00 | 81 | 1021.0 |
| 20260507234536 | 30 | 91 | 1.0 | 2.0 | 0.00 | 0.00 | 0.00 | 80 | 1021.0 |
| 20260507233636 | 31 | 91 | 1.0 | 2.0 | 0.00 | 0.00 | 0.00 | 78 | 1020.9 |
| 20260507232736 | 31 | 92 | 1.0 | 2.0 | 0.00 | 0.00 | 0.00 | 78 | 1020.9 |
| 20260507232045 | 32 | 92 | 1.0 | 2.0 | 0.00 | 0.00 | 0.00 | 78 | 1020.9 |
| 20260507230936 | 32 | 94 | 1.0 | 2.0 | 0.00 | 0.00 | 0.00 | 76 | 1020.7 |
| 20260507230036 | 32 | 95 | 1.0 | 2.0 | 0.00 | 0.00 | 0.00 | 75 | 1020.7 |
| 20260507225136 | 33 | 93 | 1.0 | 3.0 | 0.00 | 0.00 | 0.00 | 74 | 1020.6 |
| 20260507215736 | 38 | 91 | 0.0 | 1.0 | 0.00 | 0.00 | 0.00 | 64 | 1020.2 |
| 20260507215048 | 38 | 91 | 1.0 | 2.0 | 0.00 | 0.00 | 0.00 | 68 | 1020.2 |
| 20260507213935 | 39 | 119 | 0.0 | 2.0 | 0.00 | 0.00 | 0.00 | 64 | 1020.0 |
| 20260507213036 | 40 | 132 | 1.0 | 2.0 | 0.00 | 0.00 | 0.00 | 62 | 1019.8 |
| 20260507212136 | 41 | 124 | 0.0 | 1.0 | 0.00 | 0.00 | 0.00 | 60 | 1019.8 |
| 20260507211236 | 41 | 124 | 0.0 | 1.0 | 0.00 | 0.00 | 0.00 | 59 | 1019.7 |
| 20260507210336 | 41 | 0 | 0.0 | 0.0 | 0.00 | 0.00 | 0.00 | 57 | 1019.4 |
| 20260507205435 | 41 | 124 | 0.0 | 1.0 | 0.00 | 0.00 | 0.00 | 54 | 1019.2 |
| 20260507204536 | 42 | 125 | 1.0 | 2.0 | 0.00 | 0.00 | 0.00 | 53 | 1019.1 |
| 20260507203636 | 42 | 125 | 1.0 | 3.0 | 0.00 | 0.00 | 0.00 | 53 | 1019.1 |
| 20260507202736 | 41 | 119 | 0.0 | 2.0 | 0.00 | 0.00 | 0.00 | 50 | 1018.8 |
| 20260507201835 | 40 | 116 | 0.0 | 2.0 | 0.00 | 0.00 | 0.00 | 47 | 1018.9 |
| 20260507200936 | 39 | 153 | 0.0 | 3.0 | 0.00 | 0.00 | 0.00 | 50 | 1018.7 |
| 20260507200036 | 40 | 95 | 0.0 | 2.0 | 0.00 | 0.00 | 0.00 | 50 | 1018.4 |
| 20260507195136 | 40 | 95 | 0.0 | 2.0 | 0.00 | 0.00 | 0.00 | 45 | 1018.3 |
| 20260507194236 | 41 | 95 | 1.0 | 2.0 | 0.00 | 0.00 | 0.00 | 43 | 1018.3 |
| 20260507193336 | 42 | 101 | 1.0 | 2.0 | 0.00 | 0.00 | 0.00 | 43 | 1018.1 |
| 20260507192436 | 43 | 101 | 0.0 | 1.0 | 0.00 | 0.00 | 0.00 | 40 | 1018.0 |
| 20260507191536 | 44 | 101 | 0.0 | 1.0 | 0.00 | 0.00 | 0.00 | 39 | 1017.8 |
| 20260507190846 | 45 | 0 | 0.0 | 0.0 | 0.00 | 0.00 | 0.00 | 37 | 1017.7 |
| 20260507185735 | 46 | 0 | 0.0 | 0.0 | 0.00 | 0.00 | 0.00 | 36 | 1017.4 |
| 20260507184836 | 48 | 0 | 0.0 | 0.0 | 0.00 | 0.00 | 0.00 | 34 | 1017.4 |
| 20260507183936 | 49 | 0 | 0.0 | 0.0 | 0.00 | 0.00 | 0.00 | 32 | 1017.4 |
| 20260507183245 | 50 | 0 | 0.0 | 0.0 | 0.00 | 0.00 | 0.00 | 31 | 1017.3 |
| 20260507182347 | 51 | 135 | 0.0 | 1.0 | 0.00 | 0.00 | 0.00 | 29 | 1017.3 |
| 20260507181236 | 52 | 140 | 0.0 | 3.0 | 0.00 | 0.00 | 0.00 | 26 | 1017.1 |
| 20260507180336 | 54 | 126 | 0.0 | 3.0 | 0.00 | 0.00 | 0.00 | 24 | 1017.1 |
| 20260507175436 | 55 | 113 | 0.0 | 2.0 | 0.00 | 0.00 | 0.00 | 23 | 1017.0 |
| 20260507174535 | 57 | 113 | 0.0 | 1.0 | 0.00 | 0.00 | 0.00 | 22 | 1017.0 |
| 20260507173849 | 58 | 112 | 0.0 | 2.0 | 0.00 | 0.00 | 0.00 | 21 | 1016.9 |
| 20260507172736 | 57 | 103 | 1.0 | 2.0 | 0.00 | 0.00 | 0.00 | 20 | 1016.8 |
| 20260507171836 | 57 | 115 | 2.0 | 5.0 | 0.00 | 0.00 | 0.00 | 20 | 1016.7 |
| 20260507170936 | 59 | 107 | 1.0 | 4.0 | 0.00 | 0.00 | 0.00 | 20 | 1016.6 |
| 20260507170035 | 59 | 77 | 1.0 | 4.0 | 0.00 | 0.00 | 0.00 | 19 | 1016.6 |
| 20260507165135 | 58 | 97 | 1.0 | 5.0 | 0.00 | 0.00 | 0.00 | 20 | 1016.6 |
| 20260507164236 | 60 | 57 | 1.0 | 4.0 | 0.00 | 0.00 | 0.00 | 19 | 1016.5 |
| 20260507163336 | 60 | 105 | 1.0 | 5.0 | 0.00 | 0.00 | 0.00 | 20 | 1016.4 |
| 20260507162436 | 60 | 96 | 2.0 | 7.0 | 0.00 | 0.00 | 0.00 | 18 | 1016.5 |
| 20260507161745 | 60 | 119 | 2.0 | 7.0 | 0.00 | 0.00 | 0.00 | 18 | 1016.3 |
| 20260507160636 | 59 | 145 | 2.0 | 6.0 | 0.00 | 0.00 | 0.00 | 19 | 1016.2 |
| 20260507155945 | 58 | 150 | 2.0 | 4.0 | 0.00 | 0.00 | 0.00 | 19 | 1016.2 |
| 20260507154836 | 60 | 101 | 1.0 | 6.0 | 0.00 | 0.00 | 0.00 | 16 | 1016.2 |
| 20260507153935 | 58 | 48 | 3.0 | 10.0 | 0.00 | 0.00 | 0.00 | 17 | 1016.1 |
| 20260507153036 | 59 | 176 | 3.0 | 7.0 | 0.00 | 0.00 | 0.00 | 21 | 1016.2 |
| 20260507152135 | 58 | 262 | 2.0 | 6.0 | 0.00 | 0.00 | 0.00 | 20 | 1016.1 |
| 20260507151236 | 59 | 323 | 2.0 | 8.0 | 0.00 | 0.00 | 0.00 | 20 | 1016.1 |
| 20260507150336 | 58 | 117 | 2.0 | 6.0 | 0.00 | 0.00 | 0.00 | 17 | 1016.0 |
| 20260507145436 | 58 | 172 | 4.0 | 9.0 | 0.00 | 0.00 | 0.00 | 18 | 1015.9 |
| 20260507144749 | 57 | 220 | 3.0 | 6.0 | 0.00 | 0.00 | 0.00 | 18 | 1015.9 |
| 20260507143846 | 58 | 100 | 2.0 | 6.0 | 0.00 | 0.00 | 0.00 | 17 | 1015.9 |
| 20260507142949 | 58 | 101 | 2.0 | 5.0 | 0.00 | 0.00 | 0.00 | 18 | 1015.9 |
| 20260507141836 | 58 | 100 | 3.0 | 11.0 | 0.00 | 0.00 | 0.00 | 18 | 1015.9 |
| 20260507140935 | 58 | 34 | 2.0 | 8.0 | 0.00 | 0.00 | 0.00 | 20 | 1015.9 |
| 20260507140035 | 57 | 95 | 3.0 | 7.0 | 0.00 | 0.00 | 0.00 | 17 | 1015.8 |
| 20260507135136 | 58 | 71 | 4.0 | 11.0 | 0.00 | 0.00 | 0.00 | 16 | 1015.8 |
| 20260507134445 | 58 | 50 | 3.0 | 11.0 | 0.00 | 0.00 | 0.00 | 17 | 1015.6 |
| 20260507133336 | 56 | 173 | 3.0 | 6.0 | 0.00 | 0.00 | 0.00 | 16 | 1015.7 |
| 20260507132645 | 56 | 131 | 3.0 | 7.0 | 0.00 | 0.00 | 0.00 | 16 | 1015.7 |
| 20260507131535 | 56 | 53 | 5.0 | 14.0 | 0.00 | 0.00 | 0.00 | 17 | 1015.6 |
| 20260507130636 | 57 | 70 | 4.0 | 11.0 | 0.00 | 0.00 | 0.00 | 20 | 1015.5 |
| 20260507125947 | 57 | 94 | 3.0 | 11.0 | 0.00 | 0.00 | 0.00 | 20 | 1015.5 |
| 20260507125049 | 57 | 53 | 2.0 | 11.0 | 0.00 | 0.00 | 0.00 | 20 | 1015.5 |
| 20260507123935 | 57 | 87 | 3.0 | 9.0 | 0.00 | 0.00 | 0.00 | 20 | 1015.5 |
| 20260507123035 | 56 | 58 | 4.0 | 9.0 | 0.00 | 0.00 | 0.00 | 21 | 1015.4 |
| 20260507122136 | 56 | 50 | 3.0 | 10.0 | 0.00 | 0.00 | 0.00 | 21 | 1015.4 |
| 20260507121235 | 56 | 116 | 3.0 | 10.0 | 0.00 | 0.00 | 0.00 | 19 | 1015.4 |
| 20260507120336 | 56 | 73 | 2.0 | 4.0 | 0.00 | 0.00 | 0.00 | 20 | 1015.4 |
| 20260507115648 | 57 | 14 | 2.0 | 4.0 | 0.00 | 0.00 | 0.00 | 22 | 1015.4 |
| 20260507114536 | 55 | 254 | 2.0 | 6.0 | 0.00 | 0.00 | 0.00 | 23 | 1015.4 |
| 20260507113636 | 55 | 270 | 2.0 | 6.0 | 0.00 | 0.00 | 0.00 | 26 | 1015.4 |
| 20260507112735 | 54 | 283 | 3.0 | 5.0 | 0.00 | 0.00 | 0.00 | 25 | 1015.4 |
| 20260507111836 | 54 | 270 | 4.0 | 7.0 | 0.00 | 0.00 | 0.00 | 26 | 1015.4 |
| 20260507110936 | 54 | 268 | 3.0 | 8.0 | 0.00 | 0.00 | 0.00 | 25 | 1015.2 |
| 20260507110035 | 55 | 288 | 2.0 | 6.0 | 0.00 | 0.00 | 0.00 | 28 | 1015.2 |
| 20260507105350 | 54 | 289 | 2.0 | 4.0 | 0.00 | 0.00 | 0.00 | 25 | 1015.3 |
| 20260507104235 | 54 | 336 | 2.0 | 6.0 | 0.00 | 0.00 | 0.00 | 31 | 1015.3 |
| 20260507103336 | 53 | 300 | 2.0 | 5.0 | 0.00 | 0.00 | 0.00 | 29 | 1015.3 |
| 20260507102436 | 53 | 302 | 2.0 | 5.0 | 0.00 | 0.00 | 0.00 | 28 | 1015.2 |
| 20260507101536 | 53 | 273 | 4.0 | 9.0 | 0.00 | 0.00 | 0.00 | 30 | 1015.1 |
| 20260507100635 | 52 | 187 | 3.0 | 9.0 | 0.00 | 0.00 | 0.00 | 31 | 1015.0 |
| 20260507095736 | 53 | 164 | 3.0 | 8.0 | 0.00 | 0.00 | 0.00 | 30 | 1015.0 |
| 20260507095046 | 54 | 132 | 3.0 | 7.0 | 0.00 | 0.00 | 0.00 | 27 | 1014.9 |
| 20260507093936 | 54 | 71 | 2.0 | 6.0 | 0.00 | 0.00 | 0.00 | 30 | 1014.9 |
| 20260507093036 | 53 | 80 | 3.0 | 9.0 | 0.00 | 0.00 | 0.00 | 29 | 1014.9 |
| 20260507092136 | 52 | 302 | 2.0 | 5.0 | 0.00 | 0.00 | 0.00 | 35 | 1014.8 |
| 20260507091236 | 52 | 289 | 2.0 | 5.0 | 0.00 | 0.00 | 0.00 | 35 | 1014.9 |
| 20260507090336 | 51 | 245 | 3.0 | 6.0 | 0.00 | 0.00 | 0.00 | 41 | 1015.0 |
| 20260507085436 | 51 | 247 | 2.0 | 6.0 | 0.00 | 0.00 | 0.00 | 39 | 1014.9 |
| 20260507084747 | 51 | 245 | 2.0 | 6.0 | 0.00 | 0.00 | 0.00 | 38 | 1014.9 |
| 20260507083636 | 51 | 270 | 2.0 | 6.0 | 0.00 | 0.00 | 0.00 | 40 | 1014.9 |
| 20260507082736 | 52 | 281 | 1.0 | 5.0 | 0.00 | 0.00 | 0.00 | 46 | 1014.8 |
| 20260507081835 | 49 | 281 | 3.0 | 6.0 | 0.00 | 0.00 | 0.00 | 47 | 1014.6 |
| 20260507080936 | 50 | 294 | 1.0 | 5.0 | 0.00 | 0.00 | 0.00 | 50 | 1014.7 |
| 20260507080036 | 48 | 280 | 2.0 | 4.0 | 0.00 | 0.00 | 0.00 | 54 | 1014.8 |
| 20260507075136 | 48 | 294 | 2.0 | 4.0 | 0.00 | 0.00 | 0.00 | 56 | 1014.8 |
| 20260507074236 | 46 | 322 | 2.0 | 4.0 | 0.00 | 0.00 | 0.00 | 53 | 1014.8 |
| 20260507073336 | 47 | 303 | 2.0 | 4.0 | 0.00 | 0.00 | 0.00 | 57 | 1014.6 |
| 20260507072436 | 45 | 304 | 2.0 | 3.0 | 0.00 | 0.00 | 0.00 | 58 | 1014.6 |
| 20260507071746 | 44 | 271 | 2.0 | 3.0 | 0.00 | 0.00 | 0.00 | 57 | 1014.6 |
| 20260507070636 | 44 | 276 | 2.0 | 4.0 | 0.00 | 0.00 | 0.00 | 59 | 1014.6 |
| 20260507065736 | 44 | 291 | 2.0 | 3.0 | 0.00 | 0.00 | 0.00 | 60 | 1014.6 |
| 20260507064836 | 43 | 300 | 1.0 | 3.0 | 0.00 | 0.00 | 0.00 | 60 | 1014.5 |
| 20260507063935 | 43 | 296 | 1.0 | 3.0 | 0.00 | 0.00 | 0.00 | 59 | 1014.5 |
| 20260507063036 | 42 | 271 | 1.0 | 3.0 | 0.00 | 0.00 | 0.00 | 60 | 1014.3 |
| 20260507062135 | 42 | 262 | 1.0 | 3.0 | 0.00 | 0.00 | 0.00 | 61 | 1014.4 |
| 20260507061447 | 42 | 231 | 1.0 | 3.0 | 0.00 | 0.00 | 0.00 | 60 | 1014.3 |
| 20260507060336 | 42 | 132 | 1.0 | 2.0 | 0.00 | 0.00 | 0.00 | 59 | 1014.2 |
| 20260507055436 | 42 | 133 | 1.0 | 3.0 | 0.00 | 0.00 | 0.00 | 61 | 1014.1 |
| 20260507054536 | 42 | 124 | 2.0 | 3.0 | 0.00 | 0.00 | 0.00 | 59 | 1014.1 |
| 20260507053636 | 43 | 130 | 1.0 | 3.0 | 0.00 | 0.00 | 0.00 | 54 | 1014.0 |
| 20260507052736 | 41 | 114 | 1.0 | 3.0 | 0.00 | 0.00 | 0.00 | 57 | 1014.0 |
| 20260507051835 | 41 | 120 | 1.0 | 2.0 | 0.00 | 0.00 | 0.00 | 57 | 1014.0 |
| 20260507050935 | 39 | 252 | 1.0 | 3.0 | 0.00 | 0.00 | 0.00 | 58 | 1014.0 |
| 20260507050036 | 39 | 258 | 0.0 | 1.0 | 0.00 | 0.00 | 0.00 | 59 | 1013.9 |
| 20260507045135 | 38 | 134 | 1.0 | 2.0 | 0.00 | 0.00 | 0.00 | 60 | 1013.8 |
| 20260507044236 | 37 | 134 | 1.0 | 2.0 | 0.00 | 0.00 | 0.00 | 62 | 1013.8 |
| 20260507043336 | 36 | 119 | 2.0 | 4.0 | 0.00 | 0.00 | 0.00 | 63 | 1013.7 |
| 20260507042645 | 36 | 108 | 1.0 | 3.0 | 0.00 | 0.00 | 0.00 | 63 | 1013.7 |
| 20260507041536 | 35 | 104 | 0.0 | 2.0 | 0.00 | 0.00 | 0.00 | 64 | 1013.5 |
| 20260507040845 | 34 | 104 | 0.0 | 2.0 | 0.00 | 0.00 | 0.00 | 66 | 1013.6 |
| 20260507035736 | 33 | 0 | 0.0 | 0.0 | 0.00 | 0.00 | 0.00 | 71 | 1013.3 |
| 20260507034836 | 32 | 103 | 0.0 | 2.0 | 0.00 | 0.00 | 0.00 | 72 | 1013.3 |
| 20260507034147 | 32 | 103 | 0.0 | 2.0 | 0.00 | 0.00 | 0.00 | 75 | 1013.2 |
| 20260507033036 | 30 | 103 | 0.0 | 1.0 | 0.00 | 0.00 | 0.00 | 75 | 1013.2 |
| 20260507032136 | 31 | 95 | 1.0 | 2.0 | 0.00 | 0.00 | 0.00 | 75 | 1013.1 |
| 20260507031235 | 30 | 89 | 0.0 | 2.0 | 0.00 | 0.00 | 0.00 | 77 | 1013.0 |
| 20260507030336 | 28 | 96 | 1.0 | 2.0 | 0.00 | 0.00 | 0.00 | 80 | 1012.9 |
| 20260507025649 | 27 | 101 | 1.0 | 2.0 | 0.00 | 0.00 | 0.00 | 81 | 1013.0 |
| 20260507024536 | 27 | 101 | 0.0 | 1.0 | 0.00 | 0.00 | 0.00 | 81 | 1013.1 |
| 20260507023636 | 28 | 98 | 1.0 | 2.0 | 0.00 | 0.00 | 0.00 | 81 | 1013.0 |
| 20260507022946 | 28 | 93 | 1.0 | 3.0 | 0.00 | 0.00 | 0.00 | 82 | 1013.0 |
| 20260507021835 | 28 | 91 | 0.0 | 2.0 | 0.00 | 0.00 | 0.00 | 82 | 1012.9 |
| 20260507020936 | 28 | 99 | 0.0 | 1.0 | 0.00 | 0.00 | 0.00 | 82 | 1012.9 |
| 20260507020036 | 29 | 99 | 0.0 | 1.0 | 0.00 | 0.00 | 0.00 | 81 | 1012.9 |
| 20260507015136 | 30 | 100 | 0.0 | 1.0 | 0.00 | 0.00 | 0.00 | 80 | 1012.8 |
| 20260507014236 | 30 | 96 | 1.0 | 4.0 | 0.00 | 0.00 | 0.00 | 80 | 1012.5 |
| 20260507013336 | 30 | 95 | 1.0 | 2.0 | 0.00 | 0.00 | 0.00 | 80 | 1012.7 |